Location: Taukkyan
(23.1052°N, 94.0030°E)
Time: 10:30:15
(UTC+00:00)

SWIFT - Pass Details

Date: 06 July 2020
Orbit: 545 x 560 km, 20.6° (Epoch: 14 August)

Event Time Altitude Azimuth Distance (km) Brightness Sun altitude
Exits shadow 21:16:40 61° 168° (SSE) 627 2.4 -21.9°
Drops below altitude 10° 21:20:44 10° 99° (E) 1,830 5.5 -21.2°
Sets 21:23:02 0° 96° (E) 2,725 6.6 -20.8°
